This demonstration page uses our WeatherBlox Daily Observations layout. Learn more.

Left ArrowRight Arrow

53.62937, 11.41316

Hourly Observations for January 30, 2020

Temp ( °F °C ) Dew Point ( °F °C ) Humidity (%) Winds ( mph kmh ) Pressure ( in mb ) Visibility ( mi km ) Precip ( " mm )
6:50 am 06:50 Mostly Cloudy with Light Rain 43 6 41 5 93 93 WSW 20 31 29.59 1002 30 48 N/A
7:20 am 07:20 Mostly Cloudy with Light Rain 43 6 41 5 93 93 WSW 17 28 29.59 1002 6 9 N/A
7:50 am 07:50 Mostly Cloudy with Light Rain 43 6 41 5 93 93 WSW 17 28 29.59 1002 6 9 N/A
8:20 am 08:20 Mostly Cloudy with Light Rain 43 6 41 5 93 93 WSW 17 28 29.59 1002 30 48 N/A
8:50 am 08:50 Mostly Cloudy with Light Rain 43 6 41 5 93 93 WSW 17 28 29.59 1002 30 48 N/A
9:20 am 09:20 Mostly Cloudy with Light Rain 45 7 43 6 93 93 WSW 17 28 29.59 1002 30 48 N/A
9:50 am 09:50 Cloudy with Light Rain 45 7 43 6 93 93 WSW 18 30 29.59 1002 30 48 N/A
10:20 am 10:20 Mostly Cloudy with Light Rain 45 7 43 6 93 93 WSW 17 28 29.59 1002 4 7 N/A
10:50 am 10:50 Mostly Cloudy with Light Rain 45 7 43 6 93 93 W 18 30 29.59 1002 3 5 N/A
11:20 am 11:20 Mostly Cloudy with Drizzle 45 7 43 6 93 93 W 17 28 29.62 1003 2 3 N/A
11:50 am 11:50 Mostly Cloudy with Drizzle 45 7 43 6 93 93 W 17 28 29.62 1003 4 6 N/A
12:20 pm 12:20 Cloudy with Drizzle 45 7 43 6 93 93 W 16 26 29.62 1003 4 6 N/A
12:50 pm 12:50 Mostly Cloudy with Light Rain 45 7 43 6 93 93 W 16 26 29.62 1003 4 6 N/A
1:20 pm 13:20 Mostly Cloudy with Drizzle 45 7 43 6 93 93 W 15 24 29.62 1003 2 4 N/A
1:50 pm 13:50 Mostly Cloudy 45 7 43 6 93 93 W 15 24 29.62 1003 30 48 N/A
2:20 pm 14:20 Mostly Cloudy 46 8 43 6 87 87 W 16 26 29.62 1003 30 48 N/A
2:50 pm 14:50 Mostly Cloudy 46 8 41 5 82 82 WSW 15 24 29.62 1003 30 48 N/A
3:20 pm 15:20 Mostly Cloudy 46 8 41 5 82 82 WSW 14 22 29.59 1002 30 48 N/A
3:50 pm 15:50 Mostly Cloudy 46 8 41 5 82 82 WSW 15 24 29.59 1002 30 48 N/A
4:20 pm 16:20 Mostly Cloudy 46 8 41 5 82 82 WSW 14 22 29.59 1002 30 48 N/A
4:50 pm 16:50 Mostly Cloudy 46 8 39 4 76 76 WSW 13 20 29.59 1002 30 48 N/A
5:20 pm 17:20 Mostly Cloudy 46 8 39 4 76 76 WSW 14 22 29.59 1002 30 48 N/A
5:50 pm 17:50 Mostly Cloudy 45 7 39 4 81 81 SW 8 13 29.56 1001 30 48 N/A
6:20 pm 18:20 Mostly Cloudy 45 7 41 5 87 87 SSW 8 13 29.53 1000 30 48 N/A
6:50 pm 18:50 Mostly Cloudy 45 7 41 5 87 87 SSW 8 13 29.53 1000 30 48 N/A
7:20 pm 19:20 Mostly Cloudy 46 8 41 5 82 82 SSW 9 15 29.50 999 30 48 N/A
7:50 pm 19:50 Mostly Cloudy 46 8 41 5 82 82 SSW 8 13 29.50 999 30 48 N/A

Powered by AerisWeather